Location: ???????
(55.4362°N, 38.1183°E)
Time: 18:12:35
(UTC+00:00)

USA 238 DEB - Pass Details

Date: 17 June 2021
Orbit: 991 x 1221 km, 63.4° (Epoch: 16 July)

Event Time Altitude Azimuth Distance (km) Brightness Sun altitude
Rises 19:14:54 0° 240° (WSW) 3,751 6.6 -6.2°
Reaches altitude 10° 19:17:27 10° 243° (WSW) 2,825 6.0 -6.4°
Maximum altitude 19:24:07 72° 327° (NNW) 1,124 4.1 -6.8°
Drops below altitude 10° 19:31:13 10° 53° (NE) 2,995 6.2 -7.3°
Sets 19:34:00 0° 55° (NE) 3,990 6.8 -7.5°
